Greenwood, MS

3:11 PM CDT on April 23, 2017 (GMT -0500)
Greenwood-Leflore

Weather History for KGWO - November, 2011

Change the Weather History Date:

Tuesday, November 1, 2011

  Actual Average Record
Temperature  
Mean Temperature 55 °F 59 °F  
Max Temperature 74 °F 72 °F 89 °F (1972)
Min Temperature 36 °F 47 °F 24 °F (1993)
Degree Days  
Heating Degree Days 10 7  
Month to date heating degree days 10 7  
Since 1 July heating degree days 197 138  
Cooling Degree Days 0 1  
Month to date cooling degree days 0 1  
Year to date cooling degree days 2296 2143  
Growing Degree Days 5 (Base 50)    
Moisture  
Dew Point 38 °F    
Average Humidity 56    
Maximum Humidity 85    
Minimum Humidity 27    
Precipitation  
Precipitation 0.00 in 0.12 in 1.52 in (1996)
Month to date precipitation 0.00 0.12  
Year to date precipitation 28.15 41.72  
Sea Level Pressure  
Sea Level Pressure 30.22 in    
Wind  
Wind Speed 5 mph (ESE)    
Max Wind Speed 13 mph    
Max Gust Speed 15 mph    
Visibility 10 miles    
Events      
T = Trace of Precipitation, MM = Missing Value Source: NWS Daily Summary

Daily Weather History Graph

Daily Weather History Graph

Search for Another Location

Airport or City:

Trip Planner

Search our weather history database for the weather conditions in past years. The results will help you decide how hot, cold, wet, or windy it might be!

Date:

Astronomy

Nov. 01, 2011 Rise Set
Actual Time 7:18 AM CDT 6:08 PM CDT
Civil Twilight 6:53 AM CDT 6:34 PM CDT
Nautical Twilight 6:23 AM CDT 7:03 PM CDT
Astronomical Twilight 5:54 AM CDT 7:32 PM CDT
Moon 1:02 PM CDT (11/1) 11:52 PM CDT (11/1)
Length of Visible Light 11h 41m
Length of Day
10h 49m
Waxing Crescent, 40% of the Moon is Illuminated
Nov 1
Waxing Crescent
Nov 2
First Quarter
Nov 10
Full
Nov 18
Last Quarter
Nov 25
New

Hourly Weather History & Observations

Time (CDT) Temp. Windchill Dew Point Humidity Pressure Visibility Wind Dir Wind Speed Gust Speed Precip Events Conditions
12:53 AM 39.9 °F - 36.0 °F 86% 30.23 in 10.0 mi Calm Calm - N/A   Clear
1:53 AM 39.0 °F 36.8 °F 35.1 °F 86% 30.23 in 10.0 mi NE 3.5 mph - N/A   Clear
2:53 AM 37.9 °F 34.4 °F 34.0 °F 86% 30.23 in 10.0 mi NE 4.6 mph - N/A   Clear
3:53 AM 39.9 °F 35.1 °F 35.1 °F 83% 30.23 in 10.0 mi ENE 6.9 mph - N/A   Clear
4:53 AM 37.9 °F 34.4 °F 34.0 °F 86% 30.23 in 10.0 mi NE 4.6 mph - N/A   Clear
5:53 AM 37.0 °F 33.3 °F 33.1 °F 86% 30.23 in 10.0 mi NE 4.6 mph - N/A   Clear
6:53 AM 39.0 °F 36.8 °F 34.0 °F 82% 30.23 in 10.0 mi East 3.5 mph - N/A   Clear
7:53 AM 43.0 °F 39.5 °F 35.1 °F 74% 30.25 in 10.0 mi ENE 5.8 mph - N/A   Clear
8:53 AM 48.0 °F - 37.9 °F 68% 30.27 in 10.0 mi East 4.6 mph - N/A   Clear
9:53 AM 57.0 °F - 39.0 °F 51% 30.29 in 10.0 mi ENE 4.6 mph - N/A   Clear
10:53 AM 66.9 °F - 39.9 °F 37% 30.28 in 10.0 mi South 8.1 mph - N/A   Clear
11:53 AM 69.1 °F - 39.0 °F 33% 30.27 in 10.0 mi SE 4.6 mph - N/A   Clear
12:53 PM 71.1 °F - 37.9 °F 30% 30.24 in 10.0 mi East 8.1 mph - N/A   Clear
1:53 PM 72.0 °F - 37.9 °F 29% 30.20 in 10.0 mi Variable 6.9 mph - N/A   Clear
2:53 PM 73.9 °F - 37.9 °F 27% 30.19 in 10.0 mi SE 11.5 mph - N/A   Clear
3:53 PM 73.0 °F - 37.9 °F 28% 30.17 in 10.0 mi South 6.9 mph - N/A   Clear
4:53 PM 72.0 °F - 37.9 °F 29% 30.17 in 10.0 mi South 8.1 mph - N/A   Clear
5:53 PM 66.9 °F - 39.9 °F 37% 30.17 in 10.0 mi SE 5.8 mph - N/A   Clear
6:53 PM 54.0 °F - 42.1 °F 64% 30.18 in 10.0 mi Calm Calm - N/A   Clear
7:53 PM 53.1 °F - 43.0 °F 69% 30.19 in 10.0 mi Calm Calm - N/A   Clear
8:53 PM 51.1 °F - 42.1 °F 71% 30.20 in 10.0 mi Calm Calm - N/A   Clear
9:53 PM 59.0 °F - 41.0 °F 51% 30.20 in 10.0 mi SE 8.1 mph - N/A   Clear
10:53 PM 57.9 °F - 39.9 °F 51% 30.19 in 10.0 mi SSE 9.2 mph - N/A   Clear
11:53 PM 57.9 °F - 39.9 °F 51% 30.18 in 10.0 mi SSE 8.1 mph - N/A   Clear